Location: Unspecified
(0.0000°N, 0.0000°E)
Time: 08:39:29
(UTC+00:00)

Transit 4A - Pass Details

Date: 04 June 2022
Orbit: 864 x 980 km, 66.8° (Epoch: 24 June)

Event Time Altitude Azimuth Distance (km) Brightness Sun altitude
Rises 12:30:18 0° 328° (NNW) 3,521 11.3 66.2°
Reaches altitude 10° 12:32:56 10° 322° (NW) 2,565 10.7 66.0°
Maximum altitude 12:38:31 44° 251° (WSW) 1,200 9.2 65.5°
Drops below altitude 10° 12:44:02 10° 180° (S) 2,516 10.1 64.9°
Sets 12:46:36 0° 173° (S) 3,448 10.6 64.6°
